Location: Franzen
(48.6167°N, 15.3833°E)
Time: 01:39:19
(UTC+00:00)

Transit 2A - Pass Details

Date: 04 August 2021
Orbit: 594 x 964 km, 66.7° (Epoch: 21 September)

Event Time Altitude Azimuth Distance (km) Brightness Sun altitude
Rises 06:59:06 0° 274° (W) 2,916 8.5 31.6°
Reaches altitude 10° 07:02:09 10° 297° (WNW) 2,064 7.8 32.1°
Maximum altitude 07:05:00 16° 335° (NNW) 1,764 7.7 32.6°
Drops below altitude 10° 07:08:00 10° 12° (NNE) 2,193 8.5 33.0°
Sets 07:11:25 0° 34° (NE) 3,201 9.5 33.6°
